Skip Page Navigation
NASA JPL Caltech
NASA Logo - Jet Propulsion Laboratory + View the NASA Portal
+ Center for Near-Earth Object Studies
JPL Home Earth Solar System Stars & Galaxies Technology
JPL Solar System Dynamics
BODIES ORBITS EPHEMERIDES TOOLS PHYSICAL DATA DISCOVERY FAQ SITE MAP
IMPORTANT: The SSD Announcement email list is now available. Major changes are coming in the near future, including possible hostname and/or URL changes. To be notified of such changes, subscribe to this email list.

Please visit this page for more details.


JPL Small-Body Database Browser
Search: [ help ]  
48070 Zizza (2001 FB4)
Classification: Main-belt Asteroid          SPK-ID: 2048070
Ephemeris | Orbit Diagram | Orbital Elements | Mission Design | Physical Parameters | Discovery Circumstances | Close-Approach Data ]

[ show orbit diagram ]
Orbital Elements at Epoch 2458600.5 (2019-Apr-27.0) TDB
Reference: JPL 22 (heliocentric ecliptic J2000)
 Element Value Uncertainty (1-sigma)   Units 
e .196530337628283 3.9313e-08  
a 2.859239448035629 1.8676e-08 au
q 2.297312153953082 1.1001e-07 au
i 3.345866306568785 5.5148e-06 deg
node 190.1775366806413 7.3989e-05 deg
peri 78.83222325556673 7.5312e-05 deg
M 209.3737496541427 1.5554e-05 deg
tp 2459339.377397666262
(2021-May-04.87739767)
7.9709e-05 TDB
period 1765.932980135226
4.83
1.7302e-05
4.737e-08
d
yr
n .2038582460657329 1.9974e-09 deg/d
Q 3.421166742118177 2.2347e-08 au
  Orbit Determination Parameters
   # obs. used (total)      1231  
   data-arc span      7387 days (20.22 yr)  
   first obs. used      1998-10-18  
   last obs. used      2019-01-08  
   planetary ephem.      DE431  
   SB-pert. ephem.      SB431-N16  
   condition code      0  
   norm. resid. RMS      .54922  
   source      ORB  
   producer      Otto Matic  
   solution date      2019-Jul-13 02:44:55  

Additional Information
 Earth MOID = 1.28377 au 
 Jupiter MOID = 1.68995 au 
 T_jup = 3.271 
[ show covariance matrix ]

Ephemeris | Orbit Diagram | Orbital Elements | Mission Design | Physical Parameters | Discovery Circumstances | Close-Approach Data ]

Physical Parameter Table
Parameter Symbol Value Units Sigma Reference Notes
absolute magnitude H 13.9   n/a MPO436118  
diameter diameter 9.119 km 0.266 urn:nasa:pds:neowise_diameters_albedos::2.0[mainbelt] (http://adsabs.harvard.edu/abs/2011ApJ...741...68M)  
geometric albedo albedo 0.064   0.015 urn:nasa:pds:neowise_diameters_albedos::2.0[mainbelt] (http://adsabs.harvard.edu/abs/2011ApJ...741...68M)  

48070 Zizza           Discovered 2001 Mar. 19 by D. Healy at Junk Bond Observatory.
Frank Zizza is associate professor of mathematics at the University of Arizona South and past president of the Huachuca Astronomy Club. He is credited with originating the idea of establishing an astronomical observatory on the university's campus in Sierra Vista.
NOTE: some special characters may not display properly (any characters within {} are an attempt to place the proper accent above a character)
Reference: 20040504/MPCPages.arcLast Updated: 2004-05-11

[ show close-approach data ]
Alternate Designations
 2001 FB4 = 2000 CH6 
Ephemeris | Orbit Diagram | Orbital Elements | Mission Design | Physical Parameters | Discovery Circumstances | Close-Approach Data ]
ABOUT SSD CREDITS/AWARDS PRIVACY/COPYRIGHT GLOSSARY LINKS
FirstGov
(server date/time)  
NASA Home Page
Site Manager:   Ryan S. Park
Webmaster  Alan B. Chamberlin